Location: Moscow
(55.7500°N, 37.5830°E)
Time: 06:07:00
(UTC+03:00)

Vanguard 1 - Pass Details

Date: 14 August 2022
Orbit: 649 x 3832 km, 34.2° (Epoch: 30 September)

Event Time Altitude Azimuth Distance (km) Brightness Sun altitude
Exits shadow 03:33:29 - 200° (SSW) 5,139 13.2 -10.4°
Reaches altitude 10° 03:34:41 10° 196° (SSW) 4,994 13.1 -10.3°
Maximum altitude 03:46:32 27° 146° (SSE) 4,765 13.4 -9.1°
Drops below altitude 10° 04:02:34 10° 100° (E) 6,856 15.0 -7.5°
Sets 04:09:26 0° 91° (E) 7,978 15.6 -6.7°
